Welcome to the New NWS' Forecast!
Most changes are behind the scenes, but click here for differences you might notice.

Terminal Aerodrome Forecast (TAF)

Issued by National Weather Service (NWS)

                            
533 
FTUS42 KMFL 180428 AAB
TAFMIA
TAF AMD
KMIA 180428Z 1804/1906 09009KT P6SM VCSH SCT025 SCT050
      TEMPO 1804/1806 VRB15KT 5SM TSRA BKN025CB
     FM181300 09012KT P6SM VCSH SCT025 SCT040 PROB30 1815/1818
      VRB15KT 4SM TSRA BKN025CB
     FM181800 11013KT P6SM FEW030
     FM182300 10010KT P6SM VCSH SCT025=